| time (UTC) | temp C | wind direction | speed KPH | gust KPH | rain 1hr cm | rain 24hr cm | rain mn cm | humidity % | barometer mb |
| 20260507050845 | 14 | 68 | 9.7 | 12.9 | 0.00 | 0.20 | 0.00 | 89 | 1006.7 |
| 20260507050344 | 14 | 263 | 11.3 | 17.7 | 0.00 | 0.20 | 0.00 | 90 | 1006.8 |
| 20260507045844 | 14 | 266 | 3.2 | 8.0 | 0.00 | 0.20 | 0.00 | 92 | 1006.6 |
| 20260507045344 | 14 | 265 | 6.4 | 8.0 | 0.00 | 0.20 | 0.00 | 92 | 1006.9 |
| 20260507044844 | 15 | 309 | 4.8 | 9.7 | 0.00 | 0.20 | 0.00 | 92 | 1007.0 |
| 20260507044344 | 15 | 275 | 4.8 | 16.1 | 0.00 | 0.20 | 0.00 | 93 | 1006.9 |
| 20260507043843 | 15 | 274 | 6.4 | 12.9 | 0.00 | 0.20 | 0.00 | 93 | 1006.7 |
| 20260507043403 | 15 | 271 | 6.4 | 16.1 | 0.00 | 0.20 | 0.00 | 95 | 1006.7 |
| 20260507042743 | 15 | 292 | 8.0 | 12.9 | 0.00 | 0.20 | 0.00 | 96 | 1006.5 |
| 20260507042343 | 15 | 277 | 6.4 | 6.4 | 0.00 | 0.20 | 0.00 | 96 | 1006.4 |
| 20260507041843 | 15 | 267 | 3.2 | 9.7 | 0.00 | 0.20 | 0.00 | 97 | 1006.5 |
| 20260507041343 | 15 | 263 | 4.8 | 9.7 | 0.00 | 0.20 | 0.00 | 97 | 1006.7 |
| 20260507040842 | 15 | 256 | 3.2 | 8.0 | 0.00 | 0.20 | 0.00 | 97 | 1006.7 |
| 20260507040342 | 15 | 255 | 6.4 | 6.4 | 0.00 | 0.20 | 0.00 | 98 | 1006.8 |
| 20260507035841 | 15 | 268 | 6.4 | 9.7 | 0.00 | 0.20 | 0.20 | 98 | 1006.8 |
| 20260507035402 | 15 | 262 | 11.3 | 20.9 | 0.00 | 0.20 | 0.20 | 98 | 1007.0 |
| 20260507034901 | 15 | 273 | 6.4 | 9.7 | 0.00 | 0.20 | 0.20 | 98 | 1006.9 |
| 20260507034421 | 15 | 183 | 3.2 | 9.7 | 0.00 | 0.20 | 0.20 | 98 | 1007.0 |
| 20260507033841 | 15 | 192 | 4.8 | 14.5 | 0.00 | 0.20 | 0.20 | 98 | 1006.8 |
| 20260507033341 | 15 | 186 | 3.2 | 12.9 | 0.00 | 0.20 | 0.20 | 98 | 1006.6 |
| 20260507032900 | 15 | 256 | 6.4 | 14.5 | 0.00 | 0.20 | 0.20 | 98 | 1006.8 |
| 20260507032300 | 15 | 262 | 3.2 | 19.3 | 0.00 | 0.20 | 0.20 | 98 | 1006.6 |
| 20260507031740 | 15 | 200 | 1.6 | 17.7 | 0.00 | 0.20 | 0.20 | 97 | 1006.6 |
| 20260507031240 | 15 | 188 | 4.8 | 16.1 | 0.00 | 0.20 | 0.20 | 97 | 1006.6 |
| 20260507030740 | 15 | 235 | 6.4 | 17.7 | 0.00 | 0.20 | 0.20 | 97 | 1006.6 |
| 20260507030239 | 15 | 245 | 9.7 | 17.7 | 0.00 | 0.20 | 0.20 | 97 | 1006.4 |
| 20260507025819 | 15 | 293 | 8.0 | 19.3 | 0.00 | 0.20 | 0.20 | 97 | 1006.4 |
| 20260507025239 | 15 | 253 | 11.3 | 16.1 | 0.00 | 0.20 | 0.20 | 97 | 1006.3 |
| 20260507024739 | 15 | 237 | 4.8 | 12.9 | 0.00 | 0.20 | 0.20 | 97 | 1006.2 |
| 20260507024259 | 15 | 274 | 17.7 | 17.7 | 0.00 | 0.20 | 0.20 | 97 | 1006.5 |
| 20260507023738 | 15 | 216 | 11.3 | 12.9 | 0.00 | 0.20 | 0.20 | 97 | 1006.2 |
| 20260507023238 | 15 | 195 | 4.8 | 19.3 | 0.00 | 0.20 | 0.20 | 97 | 1006.5 |
| 20260507022818 | 15 | 233 | 8.0 | 25.7 | 0.00 | 0.20 | 0.20 | 98 | 1006.5 |
| 20260507022138 | 15 | 217 | 14.5 | 20.9 | 0.00 | 0.20 | 0.20 | 98 | 1006.2 |
| 20260507021718 | 14 | 254 | 3.2 | 20.9 | 0.00 | 0.20 | 0.20 | 98 | 1006.2 |
| 20260507021138 | 14 | 203 | 6.4 | 16.1 | 0.00 | 0.20 | 0.20 | 98 | 1006.0 |
| 20260507020657 | 14 | 0.0 | 14.5 | 0.00 | 0.20 | 0.20 | 98 | 1006.0 | |
| 20260507020137 | 14 | 228 | 8.0 | 14.5 | 0.00 | 0.20 | 0.20 | 98 | 1006.4 |
| 20260507015636 | 14 | 274 | 8.0 | 17.7 | 0.00 | 0.20 | 0.20 | 98 | 1006.5 |
| 20260507015136 | 14 | 218 | 17.7 | 22.5 | 0.00 | 0.20 | 0.20 | 98 | 1006.4 |
| 20260507014657 | 14 | 200 | 4.8 | 12.9 | 0.00 | 0.20 | 0.20 | 98 | 1006.2 |
| 20260507014136 | 14 | 240 | 8.0 | 9.7 | 0.00 | 0.20 | 0.20 | 98 | 1006.5 |
| 20260507013636 | 14 | 183 | 4.8 | 17.7 | 0.00 | 0.20 | 0.20 | 98 | 1006.5 |
| 20260507013135 | 14 | 217 | 1.6 | 11.3 | 0.00 | 0.20 | 0.20 | 98 | 1006.6 |
| 20260507012635 | 14 | 188 | 3.2 | 14.5 | 0.00 | 0.20 | 0.20 | 98 | 1006.7 |
| 20260507012035 | 14 | 185 | 6.4 | 14.5 | 0.00 | 0.20 | 0.20 | 98 | 1006.6 |
| 20260507011536 | 14 | 191 | 12.9 | 17.7 | 0.00 | 0.20 | 0.20 | 98 | 1006.9 |
| 20260507011034 | 14 | 216 | 6.4 | 9.7 | 0.00 | 0.20 | 0.20 | 98 | 1006.9 |
| 20260507010534 | 14 | 214 | 6.4 | 11.3 | 0.00 | 0.20 | 0.20 | 98 | 1006.7 |
| 20260507010034 | 14 | 208 | 6.4 | 17.7 | 0.00 | 0.20 | 0.20 | 98 | 1006.8 |
| 20260507005555 | 14 | 184 | 9.7 | 24.1 | 0.00 | 0.20 | 0.20 | 98 | 1006.9 |
| 20260507005054 | 14 | 237 | 9.7 | 9.7 | 0.00 | 0.20 | 0.20 | 98 | 1006.9 |
| 20260507004534 | 14 | 194 | 9.7 | 20.9 | 0.00 | 0.20 | 0.20 | 98 | 1007.0 |
| 20260507004033 | 14 | 239 | 12.9 | 17.7 | 0.00 | 0.20 | 0.20 | 98 | 1006.9 |
| 20260507003534 | 14 | 150 | 4.8 | 9.7 | 0.03 | 0.20 | 0.20 | 98 | 1006.8 |
| 20260507003033 | 14 | 157 | 3.2 | 11.3 | 0.03 | 0.20 | 0.20 | 98 | 1006.7 |
| 20260507002432 | 14 | 217 | 12.9 | 20.9 | 0.03 | 0.20 | 0.20 | 98 | 1006.6 |
| 20260507001932 | 14 | 159 | 8.0 | 14.5 | 0.05 | 0.20 | 0.20 | 98 | 1006.7 |
| 20260507001432 | 13 | 142 | 8.0 | 14.5 | 0.05 | 0.20 | 0.20 | 98 | 1006.6 |
| 20260507000932 | 14 | 166 | 6.4 | 20.9 | 0.05 | 0.20 | 0.20 | 98 | 1006.6 |
| 20260507000432 | 14 | 208 | 6.4 | 17.7 | 0.05 | 0.20 | 0.20 | 98 | 1006.5 |
| 20260507000011 | 14 | 228 | 9.7 | 11.3 | 0.05 | 0.20 | 0.20 | 98 | 1006.5 |
| 20260506235431 | 14 | 233 | 12.9 | 27.4 | 0.05 | 0.20 | 0.20 | 98 | 1006.3 |
| 20260506234932 | 14 | 216 | 12.9 | 27.4 | 0.05 | 0.20 | 0.20 | 98 | 1006.5 |
| 20260506234431 | 14 | 200 | 3.2 | 9.7 | 0.05 | 0.20 | 0.20 | 98 | 1006.5 |
| 20260506233931 | 14 | 195 | 11.3 | 19.3 | 0.05 | 0.18 | 0.18 | 98 | 1006.4 |
| 20260506233430 | 14 | 0.0 | 12.9 | 0.03 | 0.18 | 0.18 | 98 | 1006.2 | |
| 20260506232930 | 14 | 210 | 3.2 | 14.5 | 0.03 | 0.18 | 0.18 | 98 | 1006.3 |
| 20260506232330 | 14 | 216 | 4.8 | 16.1 | 0.03 | 0.18 | 0.18 | 98 | 1006.4 |
| 20260506231830 | 14 | 189 | 9.7 | 14.5 | 0.03 | 0.15 | 0.15 | 97 | 1006.1 |
| 20260506231350 | 15 | 193 | 6.4 | 16.1 | 0.03 | 0.15 | 0.15 | 97 | 1006.5 |
| 20260506230829 | 15 | 247 | 4.8 | 12.9 | 0.00 | 0.15 | 0.15 | 97 | 1006.5 |
| 20260506230329 | 15 | 228 | 4.8 | 11.3 | 0.00 | 0.15 | 0.15 | 97 | 1006.4 |
| 20260506225829 | 15 | 181 | 3.2 | 14.5 | 0.00 | 0.15 | 0.15 | 97 | 1006.2 |
| 20260506225329 | 15 | 150 | 11.3 | 12.9 | 0.00 | 0.15 | 0.15 | 96 | 1006.5 |
| 20260506224848 | 15 | 251 | 6.4 | 9.7 | 0.00 | 0.15 | 0.15 | 97 | 1006.4 |
| 20260506224328 | 15 | 236 | 6.4 | 9.7 | 0.00 | 0.15 | 0.15 | 97 | 1006.4 |
| 20260506223829 | 15 | 278 | 6.4 | 9.7 | 0.03 | 0.15 | 0.15 | 97 | 1006.4 |
| 20260506223327 | 15 | 161 | 4.8 | 11.3 | 0.03 | 0.15 | 0.15 | 97 | 1006.5 |
| 20260506222828 | 15 | 163 | 3.2 | 19.3 | 0.05 | 0.15 | 0.15 | 97 | 1006.6 |
| 20260506222227 | 15 | 221 | 16.1 | 24.1 | 0.05 | 0.15 | 0.15 | 97 | 1006.6 |
| 20260506221727 | 15 | 192 | 3.2 | 24.1 | 0.05 | 0.15 | 0.15 | 97 | 1006.6 |
| 20260506221227 | 15 | 225 | 11.3 | 14.5 | 0.05 | 0.15 | 0.15 | 97 | 1006.8 |
| 20260506220727 | 15 | 207 | 8.0 | 11.3 | 0.05 | 0.15 | 0.15 | 97 | 1006.8 |
| 20260506220227 | 15 | 183 | 4.8 | 17.7 | 0.05 | 0.15 | 0.15 | 97 | 1006.8 |
| 20260506215727 | 15 | 194 | 12.9 | 16.1 | 0.05 | 0.15 | 0.15 | 97 | 1006.7 |
| 20260506215226 | 15 | 145 | 14.5 | 20.9 | 0.05 | 0.15 | 0.15 | 97 | 1006.9 |
| 20260506214726 | 15 | 228 | 14.5 | 17.7 | 0.05 | 0.13 | 0.13 | 97 | 1006.8 |
| 20260506214226 | 15 | 187 | 9.7 | 14.5 | 0.05 | 0.13 | 0.13 | 96 | 1007.0 |
| 20260506213725 | 15 | 198 | 6.4 | 33.8 | 0.05 | 0.13 | 0.13 | 96 | 1007.1 |
| 20260506213225 | 15 | 183 | 4.8 | 9.7 | 0.03 | 0.10 | 0.10 | 95 | 1007.1 |
| 20260506212725 | 15 | 0.0 | 22.5 | 0.03 | 0.10 | 0.10 | 94 | 1007.2 | |
| 20260506212125 | 15 | 192 | 14.5 | 25.7 | 0.00 | 0.10 | 0.10 | 93 | 1007.2 |
| 20260506211725 | 15 | 194 | 14.5 | 19.3 | 0.00 | 0.08 | 0.08 | 93 | 1007.1 |
| 20260506211225 | 16 | 166 | 9.7 | 24.1 | 0.00 | 0.08 | 0.08 | 92 | 1007.3 |
| 20260506210724 | 16 | 205 | 6.4 | 17.7 | 0.00 | 0.08 | 0.08 | 92 | 1007.1 |
| 20260506210224 | 15 | 205 | 12.9 | 20.9 | 0.00 | 0.08 | 0.08 | 92 | 1007.1 |
| 20260506205724 | 16 | 141 | 9.7 | 29.0 | 0.00 | 0.08 | 0.08 | 91 | 1007.3 |
| 20260506205224 | 15 | 153 | 16.1 | 20.9 | 0.03 | 0.08 | 0.08 | 91 | 1007.2 |
| 20260506204743 | 15 | 185 | 11.3 | 14.5 | 0.03 | 0.08 | 0.08 | 92 | 1007.3 |
| 20260506204223 | 15 | 207 | 6.4 | 17.7 | 0.03 | 0.08 | 0.08 | 92 | 1007.4 |
| 20260506203723 | 15 | 225 | 11.3 | 17.7 | 0.05 | 0.08 | 0.08 | 91 | 1007.4 |
| 20260506203303 | 16 | 157 | 6.4 | 16.1 | 0.05 | 0.08 | 0.08 | 91 | 1007.7 |
| 20260506202723 | 16 | 256 | 6.4 | 32.2 | 0.05 | 0.08 | 0.08 | 90 | 1007.6 |
| 20260506202243 | 16 | 205 | 1.6 | 11.3 | 0.05 | 0.08 | 0.08 | 91 | 1007.7 |
| 20260506201722 | 16 | 155 | 6.4 | 9.7 | 0.05 | 0.08 | 0.08 | 91 | 1007.5 |
| 20260506201223 | 16 | 222 | 8.0 | 11.3 | 0.08 | 0.08 | 0.08 | 91 | 1007.3 |
| 20260506200722 | 16 | 182 | 8.0 | 22.5 | 0.08 | 0.08 | 0.08 | 91 | 1007.5 |
| 20260506200222 | 16 | 212 | 3.2 | 17.7 | 0.08 | 0.08 | 0.08 | 90 | 1007.4 |
| 20260506195722 | 16 | 227 | 8.0 | 12.9 | 0.08 | 0.08 | 0.08 | 90 | 1007.3 |
| 20260506195242 | 16 | 223 | 4.8 | 11.3 | 0.05 | 0.05 | 0.05 | 90 | 1007.3 |
| 20260506194722 | 16 | 156 | 6.4 | 9.7 | 0.05 | 0.05 | 0.05 | 88 | 1007.3 |
| 20260506194221 | 17 | 195 | 6.4 | 17.7 | 0.05 | 0.05 | 0.05 | 86 | 1007.3 |
| 20260506193801 | 17 | 175 | 3.2 | 9.7 | 0.05 | 0.05 | 0.05 | 85 | 1007.7 |
| 20260506193221 | 17 | 193 | 1.6 | 14.5 | 0.05 | 0.05 | 0.05 | 84 | 1007.8 |
| 20260506192721 | 17 | 0.0 | 12.9 | 0.03 | 0.03 | 0.03 | 83 | 1007.6 | |
| 20260506192221 | 17 | 212 | 9.7 | 12.9 | 0.03 | 0.03 | 0.03 | 81 | 1007.7 |
| 20260506191721 | 18 | 163 | 8.0 | 20.9 | 0.03 | 0.03 | 0.03 | 80 | 1007.6 |
| 20260506191301 | 18 | 194 | 8.0 | 17.7 | 0.00 | 0.00 | 0.00 | 79 | 1007.4 |
| 20260506190720 | 18 | 176 | 9.7 | 14.5 | 0.00 | 0.00 | 0.00 | 75 | 1007.5 |
| 20260506190240 | 18 | 264 | 9.7 | 16.1 | 0.00 | 0.00 | 0.00 | 74 | 1007.3 |
| 20260506185720 | 19 | 187 | 12.9 | 24.1 | 0.00 | 0.00 | 0.00 | 71 | 1007.4 |
| 20260506185220 | 20 | 206 | 11.3 | 32.2 | 0.00 | 0.00 | 0.00 | 68 | 1007.6 |
| 20260506184720 | 20 | 169 | 19.3 | 25.7 | 0.00 | 0.00 | 0.00 | 67 | 1007.5 |
| 20260506184220 | 20 | 238 | 6.4 | 22.5 | 0.00 | 0.00 | 0.00 | 68 | 1007.6 |
| 20260506183719 | 20 | 241 | 9.7 | 11.3 | 0.00 | 0.00 | 0.00 | 68 | 1007.7 |
| 20260506183220 | 20 | 220 | 8.0 | 14.5 | 0.00 | 0.00 | 0.00 | 67 | 1007.5 |
| 20260506182719 | 20 | 191 | 6.4 | 20.9 | 0.00 | 0.00 | 0.00 | 65 | 1007.6 |
| 20260506182219 | 20 | 198 | 9.7 | 22.5 | 0.00 | 0.00 | 0.00 | 64 | 1007.8 |
| 20260506181738 | 21 | 166 | 14.5 | 24.1 | 0.00 | 0.00 | 0.00 | 63 | 1007.7 |
| 20260506181218 | 21 | 240 | 9.7 | 17.7 | 0.00 | 0.00 | 0.00 | 62 | 1007.7 |
| 20260506180717 | 21 | 201 | 6.4 | 19.3 | 0.00 | 0.00 | 0.00 | 61 | 1007.9 |
| 20260506180218 | 21 | 186 | 8.0 | 35.4 | 0.00 | 0.00 | 0.00 | 61 | 1007.7 |
| 20260506175717 | 21 | 140 | 20.9 | 33.8 | 0.00 | 0.00 | 0.00 | 60 | 1007.7 |
| 20260506175237 | 22 | 172 | 20.9 | 32.2 | 0.00 | 0.00 | 0.00 | 59 | 1008.2 |
| 20260506174717 | 22 | 132 | 9.7 | 19.3 | 0.00 | 0.00 | 0.00 | 58 | 1008.1 |
| 20260506174217 | 22 | 179 | 3.2 | 33.8 | 0.00 | 0.00 | 0.00 | 58 | 1008.0 |
| 20260506173716 | 22 | 167 | 19.3 | 24.1 | 0.00 | 0.00 | 0.00 | 58 | 1008.3 |
| 20260506173236 | 22 | 203 | 8.0 | 27.4 | 0.00 | 0.00 | 0.00 | 58 | 1008.0 |
| 20260506172716 | 22 | 217 | 6.4 | 20.9 | 0.00 | 0.00 | 0.00 | 57 | 1008.1 |
| 20260506172216 | 22 | 202 | 6.4 | 29.0 | 0.00 | 0.00 | 0.00 | 57 | 1008.2 |
| 20260506171716 | 22 | 250 | 11.3 | 17.7 | 0.00 | 0.00 | 0.00 | 60 | 1008.3 |
| 20260506171216 | 22 | 148 | 14.5 | 30.6 | 0.00 | 0.00 | 0.00 | 59 | 1008.3 |
| 20260506170715 | 22 | 187 | 8.0 | 25.7 | 0.00 | 0.00 | 0.00 | 59 | 1007.9 |
| 20260506170215 | 22 | 220 | 8.0 | 19.3 | 0.00 | 0.00 | 0.00 | 59 | 1007.8 |
| 20260506165715 | 22 | 142 | 12.9 | 30.6 | 0.00 | 0.00 | 0.00 | 61 | 1008.3 |
| 20260506165215 | 22 | 203 | 11.3 | 24.1 | 0.00 | 0.00 | 0.00 | 61 | 1008.3 |
| 20260506164755 | 22 | 242 | 17.7 | 24.1 | 0.00 | 0.00 | 0.00 | 61 | 1008.2 |
| 20260506164215 | 21 | 209 | 14.5 | 27.4 | 0.00 | 0.00 | 0.00 | 62 | 1008.5 |
| 20260506163714 | 21 | 167 | 6.4 | 29.0 | 0.00 | 0.00 | 0.00 | 62 | 1008.4 |
| 20260506163214 | 22 | 129 | 9.7 | 20.9 | 0.00 | 0.00 | 0.00 | 63 | 1008.4 |
| 20260506162714 | 21 | 148 | 16.1 | 25.7 | 0.00 | 0.00 | 0.00 | 63 | 1008.4 |
| 20260506162214 | 21 | 182 | 4.8 | 32.2 | 0.00 | 0.00 | 0.00 | 63 | 1008.5 |
| 20260506161713 | 21 | 144 | 14.5 | 17.7 | 0.00 | 0.00 | 0.00 | 63 | 1008.9 |
| 20260506161114 | 22 | 134 | 11.3 | 16.1 | 0.00 | 0.00 | 0.00 | 62 | 1008.9 |
| 20260506160613 | 21 | 148 | 12.9 | 24.1 | 0.00 | 0.00 | 0.00 | 63 | 1009.0 |
| 20260506160113 | 21 | 140 | 8.0 | 12.9 | 0.00 | 0.00 | 0.00 | 63 | 1008.8 |
| 20260506155613 | 21 | 199 | 4.8 | 16.1 | 0.00 | 0.00 | 0.00 | 63 | 1009.0 |
| 20260506155112 | 21 | 152 | 14.5 | 22.5 | 0.00 | 0.00 | 0.00 | 63 | 1009.2 |
| 20260506154612 | 21 | 216 | 16.1 | 24.1 | 0.00 | 0.00 | 0.00 | 63 | 1009.2 |
| 20260506154112 | 21 | 351 | 3.2 | 17.7 | 0.00 | 0.00 | 0.00 | 63 | 1009.3 |
| 20260506153612 | 21 | 150 | 4.8 | 17.7 | 0.00 | 0.00 | 0.00 | 62 | 1009.4 |
| 20260506153111 | 21 | 207 | 14.5 | 24.1 | 0.00 | 0.00 | 0.00 | 62 | 1009.4 |
| 20260506152612 | 22 | 263 | 24.1 | 27.4 | 0.00 | 0.00 | 0.00 | 61 | 1009.6 |
| 20260506152111 | 22 | 275 | 9.7 | 17.7 | 0.00 | 0.00 | 0.00 | 60 | 1009.8 |
| 20260506151511 | 22 | 215 | 11.3 | 27.4 | 0.00 | 0.00 | 0.00 | 61 | 1009.6 |
| 20260506151050 | 22 | 166 | 4.8 | 17.7 | 0.00 | 0.00 | 0.00 | 61 | 1009.6 |
| 20260506150531 | 22 | 178 | 3.2 | 32.2 | 0.00 | 0.00 | 0.00 | 62 | 1009.7 |
| 20260506150010 | 22 | 228 | 8.0 | 14.5 | 0.00 | 0.00 | 0.00 | 62 | 1009.6 |
| 20260506145510 | 21 | 222 | 4.8 | 24.1 | 0.00 | 0.00 | 0.00 | 63 | 1009.8 |
| 20260506145010 | 21 | 180 | 4.8 | 12.9 | 0.00 | 0.00 | 0.00 | 63 | 1009.7 |
| 20260506144510 | 21 | 168 | 3.2 | 17.7 | 0.00 | 0.00 | 0.00 | 64 | 1009.4 |
| 20260506144010 | 21 | 187 | 3.2 | 27.4 | 0.00 | 0.00 | 0.00 | 65 | 1009.6 |
| 20260506143509 | 21 | 160 | 6.4 | 8.0 | 0.00 | 0.00 | 0.00 | 65 | 1009.5 |
| 20260506143009 | 21 | 220 | 12.9 | 24.1 | 0.00 | 0.00 | 0.00 | 65 | 1009.5 |
| 20260506142509 | 21 | 207 | 4.8 | 29.0 | 0.00 | 0.00 | 0.00 | 65 | 1009.8 |
| 20260506142009 | 20 | 223 | 4.8 | 22.5 | 0.00 | 0.00 | 0.00 | 66 | 1009.7 |
| 20260506141529 | 20 | 151 | 12.9 | 20.9 | 0.00 | 0.00 | 0.00 | 67 | 1009.6 |
| 20260506140908 | 20 | 199 | 6.4 | 27.4 | 0.00 | 0.00 | 0.00 | 68 | 1009.4 |
| 20260506140408 | 20 | 204 | 16.1 | 24.1 | 0.00 | 0.00 | 0.00 | 69 | 1009.5 |
| 20260506135908 | 20 | 210 | 4.8 | 14.5 | 0.00 | 0.00 | 0.00 | 70 | 1009.6 |
| 20260506135408 | 20 | 226 | 12.9 | 22.5 | 0.00 | 0.00 | 0.00 | 71 | 1009.7 |
| 20260506134927 | 19 | 135 | 11.3 | 16.1 | 0.00 | 0.00 | 0.00 | 72 | 1009.5 |
| 20260506134407 | 19 | 154 | 8.0 | 20.9 | 0.00 | 0.00 | 0.00 | 73 | 1009.7 |
| 20260506133907 | 19 | 197 | 4.8 | 14.5 | 0.00 | 0.00 | 0.00 | 73 | 1009.7 |
| 20260506133407 | 18 | 187 | 8.0 | 20.9 | 0.00 | 0.00 | 0.00 | 75 | 1010.1 |
| 20260506132907 | 18 | 181 | 4.8 | 19.3 | 0.00 | 0.00 | 0.00 | 75 | 1010.3 |
| 20260506132407 | 18 | 166 | 6.4 | 16.1 | 0.00 | 0.00 | 0.00 | 75 | 1010.2 |
| 20260506131906 | 18 | 156 | 3.2 | 19.3 | 0.00 | 0.00 | 0.00 | 76 | 1010.4 |
| 20260506131406 | 18 | 184 | 9.7 | 16.1 | 0.00 | 0.00 | 0.00 | 76 | 1010.2 |
| 20260506130826 | 18 | 161 | 4.8 | 19.3 | 0.00 | 0.00 | 0.00 | 76 | 1010.3 |
| 20260506130306 | 18 | 190 | 4.8 | 20.9 | 0.00 | 0.00 | 0.00 | 76 | 1010.0 |
| 20260506125845 | 18 | 204 | 12.9 | 17.7 | 0.00 | 0.00 | 0.00 | 77 | 1010.1 |
| 20260506125306 | 17 | 147 | 9.7 | 20.9 | 0.00 | 0.00 | 0.00 | 78 | 1010.0 |
| 20260506124805 | 17 | 205 | 12.9 | 22.5 | 0.00 | 0.00 | 0.00 | 78 | 1010.2 |
| 20260506124305 | 17 | 189 | 8.0 | 22.5 | 0.00 | 0.00 | 0.00 | 79 | 1010.1 |
| 20260506123804 | 17 | 160 | 4.8 | 16.1 | 0.00 | 0.00 | 0.00 | 80 | 1010.3 |
| 20260506123324 | 17 | 196 | 1.6 | 22.5 | 0.00 | 0.00 | 0.00 | 81 | 1010.4 |
| 20260506122804 | 16 | 149 | 9.7 | 14.5 | 0.00 | 0.00 | 0.00 | 81 | 1010.3 |
| 20260506122306 | 16 | 255 | 1.6 | 12.9 | 0.00 | 0.00 | 0.00 | 82 | 1010.3 |
| 20260506121804 | 16 | 138 | 9.7 | 20.9 | 0.00 | 0.00 | 0.00 | 83 | 1010.1 |
| 20260506121204 | 16 | 184 | 4.8 | 17.7 | 0.00 | 0.00 | 0.00 | 83 | 1010.2 |
| 20260506120803 | 16 | 204 | 4.8 | 14.5 | 0.00 | 0.00 | 0.00 | 84 | 1010.6 |
| 20260506120303 | 16 | 176 | 9.7 | 12.9 | 0.00 | 0.00 | 0.00 | 84 | 1010.2 |
| 20260506115803 | 16 | 208 | 4.8 | 12.9 | 0.00 | 0.00 | 0.00 | 84 | 1010.7 |
| 20260506115306 | 15 | 155 | 6.4 | 16.1 | 0.00 | 0.00 | 0.00 | 84 | 1010.6 |
| 20260506114803 | 15 | 183 | 8.0 | 14.5 | 0.00 | 0.00 | 0.00 | 84 | 1010.6 |
| 20260506114402 | 15 | 217 | 19.3 | 24.1 | 0.00 | 0.00 | 0.00 | 85 | 1010.7 |
| 20260506113802 | 15 | 152 | 11.3 | 14.5 | 0.00 | 0.00 | 0.00 | 85 | 1010.7 |
| 20260506113302 | 15 | 218 | 9.7 | 14.5 | 0.00 | 0.00 | 0.00 | 84 | 1011.0 |
| 20260506112902 | 15 | 242 | 3.2 | 29.0 | 0.00 | 0.00 | 0.00 | 84 | 1010.8 |
| 20260506112305 | 15 | 189 | 9.7 | 9.7 | 0.00 | 0.00 | 0.00 | 84 | 1010.7 |
| 20260506111722 | 15 | 151 | 6.4 | 8.0 | 0.00 | 0.00 | 0.00 | 84 | 1010.6 |
| 20260506111201 | 15 | 252 | 9.7 | 24.1 | 0.00 | 0.00 | 0.00 | 84 | 1010.7 |
| 20260506110721 | 15 | 152 | 4.8 | 17.7 | 0.00 | 0.00 | 0.00 | 85 | 1010.6 |
| 20260506110201 | 15 | 174 | 14.5 | 19.3 | 0.00 | 0.00 | 0.00 | 85 | 1010.6 |
| 20260506105701 | 15 | 199 | 6.4 | 11.3 | 0.00 | 0.00 | 0.00 | 85 | 1010.5 |
| 20260506105322 | 15 | 201 | 9.7 | 11.3 | 0.00 | 0.00 | 0.00 | 85 | 1010.4 |
| 20260506104700 | 15 | 178 | 9.7 | 17.7 | 0.00 | 0.00 | 0.00 | 85 | 1010.4 |
| 20260506104200 | 15 | 229 | 3.2 | 14.5 | 0.00 | 0.00 | 0.00 | 85 | 1010.6 |
| 20260506103720 | 15 | 158 | 17.7 | 19.3 | 0.00 | 0.00 | 0.00 | 85 | 1010.6 |
| 20260506103159 | 15 | 242 | 4.8 | 14.5 | 0.00 | 0.00 | 0.00 | 85 | 1010.7 |
| 20260506102659 | 15 | 214 | 6.4 | 11.3 | 0.00 | 0.00 | 0.00 | 85 | 1010.7 |
| 20260506102240 | 15 | 153 | 6.4 | 6.4 | 0.00 | 0.00 | 0.00 | 85 | 1010.6 |
| 20260506101719 | 15 | 233 | 9.7 | 9.7 | 0.00 | 0.00 | 0.00 | 85 | 1010.7 |
| 20260506101059 | 15 | 232 | 1.6 | 19.3 | 0.00 | 0.00 | 0.00 | 84 | 1010.5 |
| 20260506100559 | 15 | 179 | 9.7 | 20.9 | 0.00 | 0.00 | 0.00 | 84 | 1010.5 |
| 20260506100058 | 15 | 237 | 8.0 | 12.9 | 0.00 | 0.00 | 0.00 | 84 | 1010.5 |
| 20260506095558 | 15 | 201 | 16.1 | 17.7 | 0.00 | 0.00 | 0.00 | 84 | 1010.6 |
| 20260506095059 | 15 | 155 | 8.0 | 9.7 | 0.00 | 0.00 | 0.00 | 84 | 1010.2 |
| 20260506094558 | 15 | 0.0 | 22.5 | 0.00 | 0.00 | 0.00 | 84 | 1010.2 | |
| 20260506094057 | 15 | 150 | 4.8 | 14.5 | 0.00 | 0.00 | 0.00 | 84 | 1010.2 |
| 20260506093557 | 15 | 228 | 14.5 | 20.9 | 0.00 | 0.00 | 0.00 | 84 | 1010.5 |
| 20260506093057 | 15 | 192 | 1.6 | 17.7 | 0.00 | 0.00 | 0.00 | 84 | 1010.4 |
| 20260506092558 | 15 | 210 | 9.7 | 11.3 | 0.00 | 0.00 | 0.00 | 83 | 1010.5 |
| 20260506092057 | 15 | 244 | 3.2 | 11.3 | 0.00 | 0.00 | 0.00 | 83 | 1010.3 |
| 20260506091636 | 15 | 217 | 3.2 | 8.0 | 0.00 | 0.00 | 0.00 | 83 | 1010.4 |
| 20260506091016 | 15 | 250 | 6.4 | 9.7 | 0.00 | 0.00 | 0.00 | 83 | 1010.4 |
| 20260506090556 | 15 | 226 | 14.5 | 17.7 | 0.00 | 0.00 | 0.00 | 83 | 1010.4 |
| 20260506090056 | 15 | 189 | 8.0 | 8.0 | 0.00 | 0.00 | 0.00 | 83 | 1010.2 |
| 20260506085555 | 15 | 217 | 8.0 | 9.7 | 0.00 | 0.00 | 0.00 | 82 | 1010.4 |
| 20260506085056 | 16 | 140 | 8.0 | 19.3 | 0.00 | 0.00 | 0.00 | 82 | 1010.6 |
| 20260506084555 | 15 | 220 | 9.7 | 20.9 | 0.00 | 0.00 | 0.00 | 82 | 1010.4 |
| 20260506084115 | 16 | 151 | 6.4 | 14.5 | 0.00 | 0.00 | 0.00 | 82 | 1010.5 |
| 20260506083615 | 16 | 236 | 6.4 | 17.7 | 0.00 | 0.00 | 0.00 | 81 | 1010.7 |
| 20260506083115 | 16 | 187 | 8.0 | 9.7 | 0.00 | 0.00 | 0.00 | 81 | 1010.4 |
| 20260506082554 | 16 | 224 | 1.6 | 9.7 | 0.00 | 0.00 | 0.00 | 81 | 1010.4 |
| 20260506082055 | 16 | 264 | 4.8 | 17.7 | 0.00 | 0.00 | 0.00 | 81 | 1010.5 |
| 20260506081554 | 16 | 234 | 8.0 | 17.7 | 0.00 | 0.00 | 0.00 | 81 | 1010.2 |
| 20260506081054 | 16 | 139 | 9.7 | 11.3 | 0.00 | 0.00 | 0.00 | 80 | 1010.4 |
| 20260506080554 | 16 | 235 | 6.4 | 20.9 | 0.00 | 0.00 | 0.00 | 80 | 1010.5 |
| 20260506073052 | 16 | 171 | 8.0 | 17.7 | 0.00 | 0.00 | 0.00 | 78 | 1010.5 |
| 20260506072551 | 16 | 208 | 11.3 | 24.1 | 0.00 | 0.00 | 0.00 | 78 | 1010.5 |
| 20260506072052 | 16 | 255 | 3.2 | 19.3 | 0.00 | 0.00 | 0.00 | 78 | 1010.4 |
| 20260506071551 | 16 | 220 | 8.0 | 17.7 | 0.00 | 0.00 | 0.00 | 78 | 1010.2 |
| 20260506071051 | 16 | 193 | 4.8 | 17.7 | 0.00 | 0.00 | 0.00 | 77 | 1010.4 |
| 20260506070551 | 16 | 224 | 6.4 | 16.1 | 0.00 | 0.00 | 0.00 | 77 | 1010.4 |
| 20260506062050 | 17 | 229 | 14.5 | 19.3 | 0.00 | 0.00 | 0.00 | 74 | 1010.0 |
| 20260506061549 | 17 | 204 | 4.8 | 24.1 | 0.00 | 0.00 | 0.00 | 74 | 1010.1 |
| 20260506061049 | 17 | 223 | 11.3 | 25.7 | 0.00 | 0.00 | 0.00 | 73 | 1010.1 |
| 20260506060608 | 17 | 282 | 8.0 | 16.1 | 0.00 | 0.00 | 0.00 | 73 | 1010.0 |